Time,TemperatureF,DewpointF,PressureIn,WindDirection,WindDirectionDegrees,WindSpeedMPH,WindSpeedGustMPH,Humidity,HourlyPrecipIn,Conditions,Clouds,dailyrainin,SoftwareType,DateUTC
2013-07-25 00:01:00,62.8,51.3,30.07,West,279,0.0,0.0,66,0.00,,CLR,0.00,VWS V13.01,2013-07-25 04:01:00,
2013-07-25 00:02:00,62.8,51.3,30.07,West,279,0.0,0.0,66,0.00,,CLR,0.00,VWS V13.01,2013-07-25 04:02:00,
2013-07-25 00:07:00,62.6,51.1,30.07,West,279,0.0,0.0,66,0.00,,CLR,0.00,VWS V13.01,2013-07-25 04:07:00,
2013-07-25 00:12:00,62.7,56.5,30.07,West,275,0.0,1.0,80,0.00,,CLR,0.00,VWS V13.01,2013-07-25 04:12:00,
2013-07-25 00:17:00,62.6,57.0,30.07,West,268,1.0,2.0,82,0.00,,CLR,0.00,VWS V13.01,2013-07-25 04:17:00,
2013-07-25 00:22:00,62.5,56.9,30.07,West,268,0.0,1.0,82,0.00,,CLR,0.00,VWS V13.01,2013-07-25 04:22:00,
2013-07-25 00:27:00,62.4,57.5,30.07,West,268,1.0,1.0,84,0.00,,CLR,0.00,VWS V13.01,2013-07-25 04:27:00,
2013-07-25 00:32:00,62.2,56.6,30.07,West,267,0.0,1.0,82,0.00,,CLR,0.00,VWS V13.01,2013-07-25 04:32:00,
2013-07-25 00:37:00,62.2,57.0,30.07,West,267,0.0,0.0,83,0.00,,CLR,0.00,VWS V13.01,2013-07-25 04:37:00,
2013-07-25 00:42:00,62.2,57.0,30.07,West,267,1.0,1.0,83,0.00,,CLR,0.00,VWS V13.01,2013-07-25 04:42:00,
2013-07-25 00:47:00,62.4,57.2,30.07,West,269,1.0,1.0,83,0.00,,CLR,0.00,VWS V13.01,2013-07-25 04:47:00,
2013-07-25 00:52:00,62.4,56.8,30.07,West,275,1.0,1.0,82,0.00,,CLR,0.00,VWS V13.01,2013-07-25 04:52:00,
2013-07-25 00:57:00,62.5,57.3,30.06,West,275,0.0,1.0,83,0.00,,CLR,0.00,VWS V13.01,2013-07-25 04:57:00,
2013-07-25 01:02:00,62.5,56.6,30.06,West,275,0.0,1.0,81,0.00,,CLR,0.00,VWS V13.01,2013-07-25 05:02:00,
2013-07-25 01:07:00,62.5,56.9,30.06,West,275,0.0,0.0,82,0.00,,CLR,0.00,VWS V13.01,2013-07-25 05:07:00,
2013-07-25 01:12:00,62.5,57.3,30.06,West,275,1.0,1.0,83,0.00,,CLR,0.00,VWS V13.01,2013-07-25 05:12:00,
2013-07-25 01:17:00,62.5,57.6,30.06,West,275,1.0,1.0,84,0.00,,CLR,0.00,VWS V13.01,2013-07-25 05:17:00,
2013-07-25 01:22:00,62.5,57.3,30.06,West,271,2.0,2.0,83,0.00,,CLR,0.00,VWS V13.01,2013-07-25 05:22:00,
2013-07-25 01:27:00,62.5,57.3,30.06,West,271,1.0,2.0,83,0.00,,CLR,0.00,VWS V13.01,2013-07-25 05:27:00,
2013-07-25 01:32:00,62.5,57.3,30.06,West,271,1.0,1.0,83,0.00,,CLR,0.00,VWS V13.01,2013-07-25 05:32:00,
2013-07-25 01:37:00,62.2,57.0,30.06,West,263,1.0,1.0,83,0.00,,CLR,0.00,VWS V13.01,2013-07-25 05:37:00,
2013-07-25 01:42:00,61.6,56.7,30.06,SW,221,2.0,3.0,84,0.00,,CLR,0.00,VWS V13.01,2013-07-25 05:42:00,
2013-07-25 01:47:00,61.3,55.8,30.06,SW,222,1.0,3.0,82,0.00,,CLR,0.00,VWS V13.01,2013-07-25 05:47:00,
2013-07-25 01:52:00,61.2,55.3,30.06,SW,217,2.0,3.0,81,0.00,,CLR,0.00,VWS V13.01,2013-07-25 05:52:00,
2013-07-25 01:57:00,61.3,55.8,30.06,SW,217,2.0,3.0,82,0.00,,CLR,0.00,VWS V13.01,2013-07-25 05:57:00,
2013-07-25 02:02:00,61.5,54.9,30.06,SSW,210,3.0,3.0,79,0.00,,CLR,0.00,VWS V13.01,2013-07-25 06:02:00,
2013-07-25 02:07:00,61.6,55.4,30.06,SW,216,2.0,3.0,80,0.00,,CLR,0.00,VWS V13.01,2013-07-25 06:07:00,
2013-07-25 02:12:00,61.8,55.2,30.06,SW,216,2.0,2.0,79,0.00,,CLR,0.00,VWS V13.01,2013-07-25 06:12:00,
2013-07-25 02:17:00,61.9,54.3,30.06,SSW,213,3.0,3.0,76,0.00,,CLR,0.00,VWS V13.01,2013-07-25 06:17:00,
2013-07-25 02:22:00,61.9,54.3,30.06,SSW,209,3.0,3.0,76,0.00,,CLR,0.00,VWS V13.01,2013-07-25 06:22:00,
2013-07-25 02:28:00,61.4,56.5,30.06,South,181,3.0,4.0,84,0.00,,CLR,0.00,VWS V13.01,2013-07-25 06:28:00,
2013-07-25 02:33:00,61.0,56.1,30.06,South,180,3.0,4.0,84,0.00,,CLR,0.00,VWS V13.01,2013-07-25 06:33:00,
2013-07-25 02:38:00,60.9,55.7,30.06,South,180,3.0,4.0,83,0.00,,CLR,0.00,VWS V13.01,2013-07-25 06:38:00,
2013-07-25 02:43:00,60.9,56.7,30.06,South,180,3.0,4.0,86,0.00,,CLR,0.00,VWS V13.01,2013-07-25 06:43:00,
2013-07-25 02:48:00,60.7,56.5,30.06,South,178,3.0,4.0,86,0.00,,CLR,0.00,VWS V13.01,2013-07-25 06:48:00,
2013-07-25 02:53:00,60.5,56.6,30.06,South,177,4.0,4.0,87,0.00,,CLR,0.00,VWS V13.01,2013-07-25 06:53:00,
2013-07-25 02:58:00,60.4,55.9,30.06,South,177,3.0,4.0,85,0.00,,CLR,0.00,VWS V13.01,2013-07-25 06:58:00,
2013-07-25 03:03:00,60.2,54.4,30.06,South,176,4.0,4.0,81,0.00,,CLR,0.00,VWS V13.01,2013-07-25 07:03:00,
2013-07-25 03:08:00,60.2,55.0,30.06,South,175,4.0,4.0,83,0.00,,CLR,0.00,VWS V13.01,2013-07-25 07:08:00,
2013-07-25 03:13:00,60.1,53.6,30.06,South,174,5.0,5.0,79,0.00,,CLR,0.00,VWS V13.01,2013-07-25 07:13:00,
2013-07-25 03:18:00,60.3,54.8,30.06,SSE,167,4.0,5.0,82,0.00,,CLR,0.00,VWS V13.01,2013-07-25 07:18:00,
2013-07-25 03:23:00,59.9,55.1,30.06,SSE,167,3.0,4.0,84,0.00,,CLR,0.00,VWS V13.01,2013-07-25 07:23:00,
2013-07-25 03:28:00,59.8,55.3,30.06,SSE,167,3.0,4.0,85,0.00,,CLR,0.00,VWS V13.01,2013-07-25 07:28:00,
2013-07-25 03:33:00,59.7,55.2,30.06,SSE,167,2.0,3.0,85,0.00,,CLR,0.00,VWS V13.01,2013-07-25 07:33:00,
2013-07-25 03:38:00,59.5,55.0,30.07,SSE,167,2.0,3.0,85,0.00,,CLR,0.00,VWS V13.01,2013-07-25 07:38:00,
2013-07-25 03:43:00,59.4,55.2,30.07,SSE,167,2.0,3.0,86,0.00,,CLR,0.00,VWS V13.01,2013-07-25 07:43:00,
2013-07-25 03:48:00,59.4,55.2,30.07,SSE,167,2.0,3.0,86,0.00,,CLR,0.00,VWS V13.01,2013-07-25 07:48:00,
2013-07-25 03:53:00,59.5,55.3,30.07,SSE,167,2.0,3.0,86,0.00,,CLR,0.00,VWS V13.01,2013-07-25 07:53:00,
2013-07-25 03:58:00,59.6,55.4,30.07,SSE,167,1.0,2.0,86,0.00,,CLR,0.00,VWS V13.01,2013-07-25 07:58:00,
2013-07-25 04:03:00,59.6,55.4,30.07,SSE,167,2.0,2.0,86,0.00,,CLR,0.00,VWS V13.01,2013-07-25 08:03:00,
2013-07-25 04:08:00,50.8,49.1,30.07,ENE,61,1.0,3.0,94,0.00,,CLR,0.00,VWS V13.01,2013-07-25 08:08:00,
2013-07-25 04:13:00,50.8,49.1,30.07,ENE,61,0.0,1.0,94,0.00,,CLR,0.00,VWS V13.01,2013-07-25 08:13:00,
2013-07-25 04:18:00,50.6,48.9,30.07,ENE,61,1.0,2.0,94,0.00,,CLR,0.00,VWS V13.01,2013-07-25 08:18:00,
2013-07-25 04:23:00,50.5,48.8,30.07,ENE,61,1.0,2.0,94,0.00,,CLR,0.00,VWS V13.01,2013-07-25 08:23:00,
2013-07-25 04:28:00,50.3,48.6,30.07,ENE,61,2.0,3.0,94,0.00,,CLR,0.00,VWS V13.01,2013-07-25 08:28:00,
2013-07-25 04:33:00,50.2,48.5,30.07,ENE,61,3.0,3.0,94,0.00,,CLR,0.00,VWS V13.01,2013-07-25 08:33:00,
2013-07-25 04:38:00,50.0,48.3,30.07,ENE,61,2.0,3.0,94,0.00,,CLR,0.00,VWS V13.01,2013-07-25 08:38:00,
2013-07-25 04:43:00,50.0,48.3,30.07,ENE,61,2.0,3.0,94,0.00,,CLR,0.00,VWS V13.01,2013-07-25 08:43:00,
2013-07-25 04:48:00,49.9,48.2,30.07,ENE,61,3.0,4.0,94,0.00,,CLR,0.00,VWS V13.01,2013-07-25 08:48:00,
2013-07-25 04:53:00,49.9,48.2,30.07,ENE,61,2.0,3.0,94,0.00,,CLR,0.00,VWS V13.01,2013-07-25 08:53:00,
2013-07-25 04:58:00,49.8,48.2,30.07,ENE,61,2.0,3.0,94,0.00,,CLR,0.00,VWS V13.01,2013-07-25 08:58:00,
2013-07-25 05:03:00,49.6,48.0,30.08,ENE,61,3.0,4.0,94,0.00,,CLR,0.00,VWS V13.01,2013-07-25 09:03:00,
2013-07-25 05:08:00,49.5,47.8,30.07,ENE,61,2.0,3.0,94,0.00,,CLR,0.00,VWS V13.01,2013-07-25 09:08:00,
2013-07-25 05:13:00,49.4,47.8,30.07,ENE,61,3.0,3.0,94,0.00,,CLR,0.00,VWS V13.01,2013-07-25 09:13:00,
2013-07-25 05:18:00,49.4,48.0,30.08,ENE,61,2.0,3.0,95,0.00,,CLR,0.00,VWS V13.01,2013-07-25 09:18:00,
2013-07-25 05:23:00,49.4,47.8,30.08,ENE,61,3.0,4.0,94,0.00,,CLR,0.00,VWS V13.01,2013-07-25 09:23:00,
2013-07-25 05:28:00,49.4,47.8,30.08,ENE,61,4.0,4.0,94,0.00,,CLR,0.00,VWS V13.01,2013-07-25 09:28:00,
2013-07-25 05:33:00,49.2,47.5,30.08,ENE,61,2.0,4.0,94,0.00,,CLR,0.00,VWS V13.01,2013-07-25 09:33:00,
2013-07-25 05:38:00,49.2,47.8,30.08,ENE,61,2.0,3.0,95,0.00,,CLR,0.00,VWS V13.01,2013-07-25 09:38:00,
2013-07-25 05:43:00,49.3,47.9,30.08,ENE,61,3.0,3.0,95,0.00,,CLR,0.00,VWS V13.01,2013-07-25 09:43:00,
2013-07-25 05:48:00,49.3,47.9,30.08,ENE,61,0.0,3.0,95,0.00,,CLR,0.00,VWS V13.01,2013-07-25 09:48:00,
2013-07-25 05:53:00,49.3,47.9,30.09,ENE,61,1.0,2.0,95,0.00,,CLR,0.00,VWS V13.01,2013-07-25 09:53:00,
2013-07-25 05:59:00,49.5,48.1,30.09,ENE,61,1.0,2.0,95,0.00,,CLR,0.00,VWS V13.01,2013-07-25 09:59:00,
2013-07-25 06:04:00,49.6,48.2,30.09,ENE,61,1.0,2.0,95,0.00,,CLR,0.00,VWS V13.01,2013-07-25 10:04:00,
2013-07-25 06:09:00,49.6,48.2,30.09,ENE,61,1.0,2.0,95,0.00,,CLR,0.00,VWS V13.01,2013-07-25 10:09:00,
2013-07-25 06:14:00,49.6,48.2,30.09,ENE,61,2.0,3.0,95,0.00,,CLR,0.00,VWS V13.01,2013-07-25 10:14:00,
2013-07-25 06:19:00,49.6,48.2,30.10,ENE,61,2.0,3.0,95,0.00,,CLR,0.00,VWS V13.01,2013-07-25 10:19:00,
2013-07-25 06:24:00,49.7,48.3,30.09,ENE,61,3.0,3.0,95,0.00,,CLR,0.00,VWS V13.01,2013-07-25 10:24:00,
2013-07-25 06:29:00,49.9,48.5,30.10,ENE,61,2.0,4.0,95,0.00,,CLR,0.00,VWS V13.01,2013-07-25 10:29:00,
2013-07-25 06:34:00,49.9,48.5,30.10,ENE,61,3.0,4.0,95,0.00,,CLR,0.00,VWS V13.01,2013-07-25 10:34:00,
2013-07-25 06:39:00,49.9,48.5,30.10,ENE,61,1.0,4.0,95,0.00,,CLR,0.00,VWS V13.01,2013-07-25 10:39:00,
2013-07-25 06:44:00,50.0,48.6,30.10,ENE,61,2.0,3.0,95,0.00,,CLR,0.00,VWS V13.01,2013-07-25 10:44:00,
2013-07-25 06:49:00,50.0,48.6,30.10,ENE,61,0.0,3.0,95,0.00,,CLR,0.00,VWS V13.01,2013-07-25 10:49:00,
2013-07-25 06:54:00,50.1,48.7,30.10,ENE,61,0.0,1.0,95,0.00,,CLR,0.00,VWS V13.01,2013-07-25 10:54:00,
2013-07-25 06:59:00,50.3,48.9,30.10,ENE,61,0.0,0.0,95,0.00,,CLR,0.00,VWS V13.01,2013-07-25 10:59:00,
2013-07-25 07:04:00,50.5,49.1,30.10,ENE,61,0.0,1.0,95,0.00,,CLR,0.00,VWS V13.01,2013-07-25 11:04:00,
2013-07-25 07:09:00,50.7,49.3,30.10,ENE,61,0.0,0.0,95,0.00,,CLR,0.00,VWS V13.01,2013-07-25 11:09:00,
2013-07-25 07:14:00,51.3,50.2,30.10,ENE,61,0.0,1.0,96,0.00,,CLR,0.00,VWS V13.01,2013-07-25 11:14:00,
2013-07-25 07:19:00,51.7,50.3,30.10,ENE,61,0.0,1.0,95,0.00,,CLR,0.00,VWS V13.01,2013-07-25 11:19:00,
2013-07-25 07:24:00,52.0,50.6,30.10,ENE,61,0.0,0.0,95,0.00,,CLR,0.00,VWS V13.01,2013-07-25 11:24:00,
2013-07-25 07:29:00,52.4,51.0,30.10,ENE,61,0.0,0.0,95,0.00,,CLR,0.00,VWS V13.01,2013-07-25 11:29:00,
2013-07-25 07:34:00,52.8,51.4,30.10,ENE,61,0.0,0.0,95,0.00,,CLR,0.00,VWS V13.01,2013-07-25 11:34:00,
2013-07-25 07:39:00,53.5,52.1,30.10,ENE,61,0.0,0.0,95,0.00,,CLR,0.00,VWS V13.01,2013-07-25 11:39:00,
2013-07-25 07:44:00,54.2,52.8,30.10,ENE,61,0.0,0.0,95,0.00,,CLR,0.00,VWS V13.01,2013-07-25 11:44:00,
2013-07-25 07:49:00,55.1,53.4,30.11,ENE,61,0.0,1.0,94,0.00,,CLR,0.00,VWS V13.01,2013-07-25 11:49:00,
2013-07-25 07:54:00,56.0,54.0,30.11,ENE,61,0.0,0.0,93,0.00,,CLR,0.00,VWS V13.01,2013-07-25 11:54:00,
2013-07-25 07:59:00,57.2,54.3,30.11,WSW,256,1.0,3.0,90,0.00,,CLR,0.00,VWS V13.01,2013-07-25 11:59:00,
2013-07-25 08:04:00,58.5,54.7,30.10,WSW,256,1.0,3.0,87,0.00,,CLR,0.00,VWS V13.01,2013-07-25 12:04:00,
2013-07-25 08:09:00,59.3,54.5,30.11,WSW,250,3.0,4.0,84,0.00,,CLR,0.00,VWS V13.01,2013-07-25 12:09:00,
2013-07-25 08:14:00,59.6,53.8,30.11,West,262,1.0,3.0,81,0.00,,CLR,0.00,VWS V13.01,2013-07-25 12:14:00,
2013-07-25 08:19:00,59.9,54.1,30.11,WSW,244,4.0,5.0,81,0.00,,CLR,0.00,VWS V13.01,2013-07-25 12:19:00,
2013-07-25 08:24:00,60.3,54.1,30.11,WSW,246,3.0,4.0,80,0.00,,CLR,0.00,VWS V13.01,2013-07-25 12:24:00,
2013-07-25 08:29:00,60.4,54.5,30.11,SW,236,3.0,5.0,81,0.00,,CLR,0.00,VWS V13.01,2013-07-25 12:29:00,
2013-07-25 08:34:00,60.5,54.3,30.11,WSW,238,4.0,5.0,80,0.00,,CLR,0.00,VWS V13.01,2013-07-25 12:34:00,
2013-07-25 08:39:00,60.7,54.2,30.11,SW,229,4.0,5.0,79,0.00,,CLR,0.00,VWS V13.01,2013-07-25 12:39:00,
2013-07-25 08:44:00,60.8,53.9,30.11,WSW,252,3.0,5.0,78,0.00,,CLR,0.00,VWS V13.01,2013-07-25 12:44:00,
2013-07-25 08:49:00,61.1,54.9,30.11,WSW,244,3.0,6.0,80,0.00,,CLR,0.00,VWS V13.01,2013-07-25 12:49:00,
2013-07-25 08:54:00,61.4,55.2,30.11,WSW,249,3.0,4.0,80,0.00,,CLR,0.00,VWS V13.01,2013-07-25 12:54:00,
2013-07-25 08:59:00,61.7,55.1,30.11,WSW,253,4.0,6.0,79,0.00,,CLR,0.00,VWS V13.01,2013-07-25 12:59:00,
2013-07-25 09:04:00,61.9,55.0,30.12,SW,234,4.0,6.0,78,0.00,,CLR,0.00,VWS V13.01,2013-07-25 13:04:00,
2013-07-25 09:09:00,62.1,55.5,30.12,WSW,240,5.0,7.0,79,0.00,,CLR,0.00,VWS V13.01,2013-07-25 13:09:00,
2013-07-25 09:15:00,62.3,55.7,30.12,WSW,249,2.0,6.0,79,0.00,,CLR,0.00,VWS V13.01,2013-07-25 13:15:00,
2013-07-25 09:20:00,62.6,56.3,30.12,SW,215,6.0,6.0,80,0.00,,CLR,0.00,VWS V13.01,2013-07-25 13:20:00,
2013-07-25 09:25:00,62.7,56.1,30.12,SSW,210,3.0,7.0,79,0.00,,CLR,0.00,VWS V13.01,2013-07-25 13:25:00,
2013-07-25 09:30:00,63.0,56.4,30.12,SSW,209,5.0,6.0,79,0.00,,CLR,0.00,VWS V13.01,2013-07-25 13:30:00,
2013-07-25 09:35:00,63.0,56.0,30.12,SSW,207,4.0,7.0,78,0.00,,CLR,0.00,VWS V13.01,2013-07-25 13:35:00,
2013-07-25 09:40:00,63.1,56.1,30.12,SW,219,4.0,7.0,78,0.00,,CLR,0.00,VWS V13.01,2013-07-25 13:40:00,
2013-07-25 09:45:00,63.1,56.1,30.12,SW,225,2.0,6.0,78,0.00,,CLR,0.00,VWS V13.01,2013-07-25 13:45:00,
2013-07-25 09:50:00,63.2,56.2,30.12,South,188,4.0,6.0,78,0.00,,CLR,0.00,VWS V13.01,2013-07-25 13:50:00,
2013-07-25 09:55:00,63.2,55.5,30.12,SSW,202,4.0,6.0,76,0.00,,CLR,0.00,VWS V13.01,2013-07-25 13:55:00,
2013-07-25 10:00:00,63.4,56.1,30.12,SSW,211,5.0,6.0,77,0.00,,CLR,0.00,VWS V13.01,2013-07-25 14:00:00,
2013-07-25 10:05:00,63.6,56.3,30.12,South,190,6.0,7.0,77,0.00,,CLR,0.00,VWS V13.01,2013-07-25 14:05:00,
2013-07-25 10:10:00,63.7,56.0,30.12,South,171,4.0,7.0,76,0.00,,CLR,0.00,VWS V13.01,2013-07-25 14:10:00,
2013-07-25 10:15:00,63.8,56.1,30.12,South,176,4.0,7.0,76,0.00,,CLR,0.00,VWS V13.01,2013-07-25 14:15:00,
2013-07-25 10:20:00,63.8,56.5,30.12,South,181,6.0,7.0,77,0.00,,CLR,0.00,VWS V13.01,2013-07-25 14:20:00,
2013-07-25 10:25:00,63.9,56.2,30.12,South,173,6.0,6.0,76,0.00,,CLR,0.00,VWS V13.01,2013-07-25 14:25:00,
2013-07-25 10:30:00,64.3,57.0,30.12,SSE,161,5.0,7.0,77,0.00,,CLR,0.00,VWS V13.01,2013-07-25 14:30:00,
2013-07-25 10:35:00,64.5,57.5,30.12,SSE,161,4.0,7.0,78,0.00,,CLR,0.00,VWS V13.01,2013-07-25 14:35:00,
2013-07-25 10:40:00,64.5,57.1,30.12,SSE,159,7.0,8.0,77,0.00,,CLR,0.00,VWS V13.01,2013-07-25 14:40:00,
2013-07-25 10:45:00,64.7,57.0,30.12,SSE,153,5.0,8.0,76,0.00,,CLR,0.00,VWS V13.01,2013-07-25 14:45:00,
2013-07-25 10:50:00,64.9,57.5,30.12,SE,142,5.0,8.0,77,0.00,,CLR,0.00,VWS V13.01,2013-07-25 14:50:00,
2013-07-25 10:55:00,65.2,57.8,30.12,SE,144,6.0,8.0,77,0.00,,CLR,0.00,VWS V13.01,2013-07-25 14:55:00,
2013-07-25 11:00:00,65.4,58.0,30.12,SSE,156,6.0,8.0,77,0.00,,CLR,0.00,VWS V13.01,2013-07-25 15:00:00,
2013-07-25 11:05:00,65.4,58.0,30.12,SE,145,5.0,8.0,77,0.00,,CLR,0.00,VWS V13.01,2013-07-25 15:05:00,
2013-07-25 11:10:00,65.4,58.4,30.12,SE,138,8.0,9.0,78,0.00,,CLR,0.00,VWS V13.01,2013-07-25 15:10:00,
2013-07-25 11:15:00,65.7,59.0,30.12,SE,129,6.0,8.0,79,0.00,,CLR,0.00,VWS V13.01,2013-07-25 15:15:00,
2013-07-25 11:20:00,65.9,59.2,30.12,SSE,148,7.0,8.0,79,0.00,,CLR,0.00,VWS V13.01,2013-07-25 15:20:00,
2013-07-25 11:25:00,65.9,58.9,30.11,SSE,152,6.0,9.0,78,0.00,,CLR,0.00,VWS V13.01,2013-07-25 15:25:00,
2013-07-25 11:30:00,65.8,59.1,30.12,SSE,151,8.0,9.0,79,0.00,,CLR,0.00,VWS V13.01,2013-07-25 15:30:00,
2013-07-25 11:35:00,65.5,59.2,30.12,SE,138,5.0,9.0,80,0.00,,CLR,0.00,VWS V13.01,2013-07-25 15:35:00,
2013-07-25 11:40:00,65.6,58.9,30.12,SSE,153,7.0,10.0,79,0.00,,CLR,0.00,VWS V13.01,2013-07-25 15:40:00,
2013-07-25 11:45:00,65.6,59.6,30.12,SSE,161,8.0,9.0,81,0.00,,CLR,0.00,VWS V13.01,2013-07-25 15:45:00,
2013-07-25 11:50:00,65.7,60.4,30.12,SSE,165,8.0,9.0,83,0.00,,CLR,0.00,VWS V13.01,2013-07-25 15:50:00,
2013-07-25 11:55:00,65.7,59.7,30.12,SSE,147,9.0,11.0,81,0.00,,CLR,0.00,VWS V13.01,2013-07-25 15:55:00,
2013-07-25 12:00:00,65.7,59.7,30.12,SSE,162,9.0,11.0,81,0.00,,CLR,0.00,VWS V13.01,2013-07-25 16:00:00,
2013-07-25 12:05:00,65.5,59.5,30.12,SSE,155,10.0,10.0,81,0.00,,CLR,0.00,VWS V13.01,2013-07-25 16:05:00,
2013-07-25 12:10:00,65.5,59.5,30.12,SSE,166,8.0,12.0,81,0.00,,CLR,0.00,VWS V13.01,2013-07-25 16:10:00,
2013-07-25 12:15:00,65.6,59.3,30.12,SSE,155,10.0,12.0,80,0.00,,CLR,0.00,VWS V13.01,2013-07-25 16:15:00,
2013-07-25 12:20:00,65.7,59.4,30.12,SSE,162,9.0,12.0,80,0.00,,CLR,0.00,VWS V13.01,2013-07-25 16:20:00,
2013-07-25 12:25:00,65.8,59.5,30.12,SE,146,10.0,12.0,80,0.00,,CLR,0.00,VWS V13.01,2013-07-25 16:25:00,
2013-07-25 12:30:00,66.0,58.6,30.12,SSE,153,12.0,13.0,77,0.00,,CLR,0.00,VWS V13.01,2013-07-25 16:30:00,
2013-07-25 12:35:00,66.2,59.2,30.12,SSE,155,12.0,13.0,78,0.00,,CLR,0.00,VWS V13.01,2013-07-25 16:35:00,
2013-07-25 12:40:00,66.2,58.8,30.12,SSE,155,11.0,13.0,77,0.00,,CLR,0.00,VWS V13.01,2013-07-25 16:40:00,
2013-07-25 12:45:00,66.2,57.7,30.12,SSE,153,11.0,14.0,74,0.00,,CLR,0.00,VWS V13.01,2013-07-25 16:45:00,
2013-07-25 12:50:00,66.2,58.8,30.12,SSE,155,11.0,14.0,77,0.00,,CLR,0.00,VWS V13.01,2013-07-25 16:50:00,
2013-07-25 12:55:00,66.3,58.5,30.12,SE,135,10.0,13.0,76,0.00,,CLR,0.00,VWS V13.01,2013-07-25 16:55:00,
2013-07-25 13:00:00,66.3,58.9,30.12,SSE,153,11.0,14.0,77,0.00,,CLR,0.00,VWS V13.01,2013-07-25 17:00:00,
2013-07-25 13:05:00,66.3,58.5,30.12,SE,143,11.0,13.0,76,0.00,,BKN055,0.00,VWS V13.01,2013-07-25 17:05:00,
2013-07-25 13:10:00,66.4,60.0,30.12,SSE,153,11.0,13.0,80,0.00,,BKN055,0.00,VWS V13.01,2013-07-25 17:10:00,
2013-07-25 13:15:00,66.5,58.7,30.12,SSE,158,8.0,14.0,76,0.00,,BKN055,0.00,VWS V13.01,2013-07-25 17:15:00,
2013-07-25 13:20:00,66.5,58.7,30.12,SE,132,10.0,14.0,76,0.00,,BKN055,0.00,VWS V13.01,2013-07-25 17:20:00,
2013-07-25 13:25:00,66.5,58.3,30.12,SSE,155,11.0,14.0,75,0.00,,BKN055,0.00,VWS V13.01,2013-07-25 17:25:00,
2013-07-25 13:30:00,66.5,58.3,30.12,SSE,166,12.0,14.0,75,0.00,,BKN055,0.00,VWS V13.01,2013-07-25 17:30:00,
2013-07-25 13:35:00,66.5,58.3,30.12,SSE,161,12.0,14.0,75,0.00,,BKN055,0.00,VWS V13.01,2013-07-25 17:35:00,
2013-07-25 13:40:00,66.5,58.0,30.12,SSE,154,9.0,14.0,74,0.00,,BKN055,0.00,VWS V13.01,2013-07-25 17:40:00,
2013-07-25 13:45:00,66.6,58.1,30.12,SSE,156,10.0,13.0,74,0.00,,BKN055,0.00,VWS V13.01,2013-07-25 17:45:00,
2013-07-25 13:50:00,66.8,58.6,30.12,SSE,148,13.0,14.0,75,0.00,,BKN055,0.00,VWS V13.01,2013-07-25 17:50:00,
2013-07-25 13:55:00,66.9,58.7,30.11,SE,135,9.0,14.0,75,0.00,,BKN055,0.00,VWS V13.01,2013-07-25 17:55:00,
2013-07-25 14:00:00,67.0,58.8,30.11,SSE,154,11.0,14.0,75,0.00,,BKN055,0.00,VWS V13.01,2013-07-25 18:00:00,
2013-07-25 14:05:00,67.1,58.2,30.11,SSE,150,12.0,13.0,73,0.00,,FEW060,0.00,VWS V13.01,2013-07-25 18:05:00,
2013-07-25 14:10:00,67.0,58.1,30.11,SE,140,10.0,15.0,73,0.00,,FEW060,0.00,VWS V13.01,2013-07-25 18:10:00,
2013-07-25 14:15:00,67.2,59.0,30.11,SSE,157,11.0,14.0,75,0.00,,FEW060,0.00,VWS V13.01,2013-07-25 18:15:00,
2013-07-25 14:16:00,67.2,59.0,30.11,SSE,154,13.0,14.0,75,0.00,,FEW060,0.00,VWS V13.01,2013-07-25 18:16:00,
2013-07-25 14:21:00,67.2,59.0,30.11,SSE,148,11.0,15.0,75,0.00,,FEW060,0.00,VWS V13.01,2013-07-25 18:21:00,
2013-07-25 14:26:00,67.2,58.3,30.11,SSE,153,14.0,14.0,73,0.00,,FEW060,0.00,VWS V13.01,2013-07-25 18:26:00,
2013-07-25 14:31:00,67.3,59.1,30.11,SE,130,9.0,14.0,75,0.00,,FEW060,0.00,VWS V13.01,2013-07-25 18:31:00,
2013-07-25 14:36:00,67.4,59.2,30.11,South,173,9.0,15.0,75,0.00,,FEW060,0.00,VWS V13.01,2013-07-25 18:36:00,
2013-07-25 14:41:00,67.4,58.5,30.11,SSE,161,13.0,14.0,73,0.00,,FEW060,0.00,VWS V13.01,2013-07-25 18:41:00,
2013-07-25 14:46:00,67.5,59.7,30.10,SE,138,8.0,14.0,76,0.00,,FEW060,0.00,VWS V13.01,2013-07-25 18:46:00,
2013-07-25 14:51:00,67.8,59.2,30.10,SSE,152,11.0,14.0,74,0.00,,FEW060,0.00,VWS V13.01,2013-07-25 18:51:00,
2013-07-25 14:56:00,67.8,59.2,30.10,SSE,149,12.0,15.0,74,0.00,,FEW060,0.00,VWS V13.01,2013-07-25 18:56:00,
2013-07-25 15:01:00,67.8,58.8,30.10,SE,145,14.0,14.0,73,0.00,,FEW060,0.00,VWS V13.01,2013-07-25 19:01:00,
2013-07-25 15:06:00,67.9,59.3,30.10,SSE,148,10.0,15.0,74,0.00,,FEW070,0.00,VWS V13.01,2013-07-25 19:06:00,
2013-07-25 15:11:00,68.0,59.4,30.10,SSE,148,14.0,14.0,74,0.00,,FEW070,0.00,VWS V13.01,2013-07-25 19:11:00,
2013-07-25 15:16:00,68.1,58.7,30.09,SSE,149,12.0,14.0,72,0.00,,FEW070,0.00,VWS V13.01,2013-07-25 19:16:00,
2013-07-25 15:21:00,68.2,58.8,30.09,SE,140,14.0,15.0,72,0.00,,FEW070,0.00,VWS V13.01,2013-07-25 19:21:00,
2013-07-25 15:26:00,68.2,59.2,30.09,SE,136,11.0,15.0,73,0.00,,FEW070,0.00,VWS V13.01,2013-07-25 19:26:00,
2013-07-25 15:31:00,68.5,59.9,30.09,SE,139,13.0,15.0,74,0.00,,FEW070,0.00,VWS V13.01,2013-07-25 19:31:00,
2013-07-25 15:36:00,68.5,59.1,30.09,ESE,119,11.0,15.0,72,0.00,,FEW070,0.00,VWS V13.01,2013-07-25 19:36:00,
2013-07-25 15:41:00,68.7,59.7,30.09,SE,136,12.0,14.0,73,0.00,,FEW070,0.00,VWS V13.01,2013-07-25 19:41:00,
2013-07-25 15:46:00,68.8,60.2,30.09,SE,135,12.0,14.0,74,0.00,,FEW070,0.00,VWS V13.01,2013-07-25 19:46:00,
2013-07-25 15:51:00,68.8,58.2,30.09,SE,142,10.0,15.0,69,0.00,,FEW070,0.00,VWS V13.01,2013-07-25 19:51:00,
2013-07-25 15:56:00,69.0,59.6,30.09,SE,133,11.0,13.0,72,0.00,,FEW070,0.00,VWS V13.01,2013-07-25 19:56:00,
2013-07-25 16:01:00,69.1,59.3,30.09,SSE,157,11.0,14.0,71,0.00,,FEW070,0.00,VWS V13.01,2013-07-25 20:01:00,
2013-07-25 16:06:00,69.2,59.4,30.09,SE,132,12.0,14.0,71,0.00,,CLR,0.00,VWS V13.01,2013-07-25 20:06:00,
2013-07-25 16:11:00,69.3,58.3,30.09,SE,140,11.0,12.0,68,0.00,,CLR,0.00,VWS V13.01,2013-07-25 20:11:00,
2013-07-25 16:16:00,69.5,58.9,30.09,SSE,153,12.0,14.0,69,0.00,,CLR,0.00,VWS V13.01,2013-07-25 20:16:00,
2013-07-25 16:21:00,69.5,59.3,30.09,SSE,149,13.0,13.0,70,0.00,,CLR,0.00,VWS V13.01,2013-07-25 20:21:00,
2013-07-25 16:26:00,69.4,58.4,30.09,SSE,150,11.0,12.0,68,0.00,,CLR,0.00,VWS V13.01,2013-07-25 20:26:00,
2013-07-25 16:31:00,69.5,60.1,30.09,SE,135,8.0,12.0,72,0.00,,CLR,0.00,VWS V13.01,2013-07-25 20:31:00,
2013-07-25 16:37:00,69.6,59.8,30.09,SE,138,8.0,12.0,71,0.00,,CLR,0.00,VWS V13.01,2013-07-25 20:37:00,
2013-07-25 16:42:00,69.6,59.8,30.09,SSE,150,8.0,11.0,71,0.00,,CLR,0.00,VWS V13.01,2013-07-25 20:42:00,
2013-07-25 16:47:00,69.7,60.7,30.08,SE,132,9.0,13.0,73,0.00,,CLR,0.00,VWS V13.01,2013-07-25 20:47:00,
2013-07-25 16:52:00,69.7,59.1,30.08,SSE,150,9.0,13.0,69,0.00,,CLR,0.00,VWS V13.01,2013-07-25 20:52:00,
2013-07-25 16:57:00,69.8,60.0,30.08,SE,144,14.0,14.0,71,0.00,,CLR,0.00,VWS V13.01,2013-07-25 20:57:00,
2013-07-25 17:02:00,69.9,60.5,30.08,SSE,148,10.0,12.0,72,0.00,,CLR,0.00,VWS V13.01,2013-07-25 21:02:00,
2013-07-25 17:07:00,69.9,58.5,30.08,SE,135,11.0,12.0,67,0.00,,CLR,0.00,VWS V13.01,2013-07-25 21:07:00,
2013-07-25 17:12:00,70.0,59.8,30.08,SE,134,9.0,12.0,70,0.00,,CLR,0.00,VWS V13.01,2013-07-25 21:12:00,
2013-07-25 17:17:00,70.1,60.7,30.08,North,360,9.0,12.0,72,0.00,,CLR,0.00,VWS V13.01,2013-07-25 21:17:00,
2013-07-25 17:22:00,70.2,60.0,30.08,SE,145,8.0,11.0,70,0.00,,CLR,0.00,VWS V13.01,2013-07-25 21:22:00,
2013-07-25 17:27:00,70.4,59.3,30.08,SSE,150,11.0,11.0,68,0.00,,CLR,0.00,VWS V13.01,2013-07-25 21:27:00,
2013-07-25 17:32:00,70.3,58.4,30.08,SE,144,10.0,11.0,66,0.00,,CLR,0.00,VWS V13.01,2013-07-25 21:32:00,
2013-07-25 17:37:00,70.4,59.8,30.08,SE,143,8.0,11.0,69,0.00,,CLR,0.00,VWS V13.01,2013-07-25 21:37:00,
2013-07-25 17:42:00,70.4,58.9,30.08,SE,145,10.0,11.0,67,0.00,,CLR,0.00,VWS V13.01,2013-07-25 21:42:00,
2013-07-25 17:47:00,70.5,60.3,30.08,SE,144,7.0,10.0,70,0.00,,CLR,0.00,VWS V13.01,2013-07-25 21:47:00,
2013-07-25 17:52:00,70.6,60.8,30.08,SE,140,7.0,10.0,71,0.00,,CLR,0.00,VWS V13.01,2013-07-25 21:52:00,
2013-07-25 17:57:00,70.7,60.8,30.07,SSE,152,9.0,11.0,71,0.00,,CLR,0.00,VWS V13.01,2013-07-25 21:57:00,
2013-07-25 18:02:00,70.8,60.5,30.07,SSE,159,7.0,10.0,70,0.00,,CLR,0.00,VWS V13.01,2013-07-25 22:02:00,
2013-07-25 18:07:00,70.7,59.2,30.07,SE,146,6.0,10.0,67,0.00,,CLR,0.00,VWS V13.01,2013-07-25 22:07:00,
2013-07-25 18:12:00,70.7,59.6,30.07,SSE,148,10.0,10.0,68,0.00,,CLR,0.00,VWS V13.01,2013-07-25 22:12:00,
2013-07-25 18:17:00,70.6,59.1,30.07,SSE,156,9.0,11.0,67,0.00,,CLR,0.00,VWS V13.01,2013-07-25 22:17:00,
2013-07-25 18:22:00,70.7,59.2,30.07,SSE,149,8.0,11.0,67,0.00,,CLR,0.00,VWS V13.01,2013-07-25 22:22:00,
2013-07-25 18:27:00,70.7,59.2,30.07,SE,139,8.0,10.0,67,0.00,,CLR,0.00,VWS V13.01,2013-07-25 22:27:00,
2013-07-25 18:32:00,70.8,58.9,30.06,SE,146,9.0,10.0,66,0.00,,CLR,0.00,VWS V13.01,2013-07-25 22:32:00,
2013-07-25 18:37:00,70.8,60.1,30.06,SE,137,8.0,10.0,69,0.00,,CLR,0.00,VWS V13.01,2013-07-25 22:37:00,
2013-07-25 18:42:00,70.9,59.0,30.06,SE,134,7.0,10.0,66,0.00,,CLR,0.00,VWS V13.01,2013-07-25 22:42:00,
2013-07-25 18:47:00,71.0,59.5,30.06,SE,130,8.0,10.0,67,0.00,,CLR,0.00,VWS V13.01,2013-07-25 22:47:00,
2013-07-25 18:52:00,70.9,60.2,30.06,SE,129,7.0,10.0,69,0.00,,CLR,0.00,VWS V13.01,2013-07-25 22:52:00,
2013-07-25 18:57:00,71.0,60.7,30.06,SE,134,7.0,10.0,70,0.00,,CLR,0.00,VWS V13.01,2013-07-25 22:57:00,
2013-07-25 19:02:00,71.0,60.3,30.06,SE,130,8.0,11.0,69,0.00,,BKN095,0.00,VWS V13.01,2013-07-25 23:02:00,
2013-07-25 19:07:00,71.2,62.1,30.06,ESE,119,8.0,10.0,73,0.00,,BKN095,0.00,VWS V13.01,2013-07-25 23:07:00,
2013-07-25 19:12:00,71.2,60.9,30.06,SE,128,6.0,10.0,70,0.00,,BKN095,0.00,VWS V13.01,2013-07-25 23:12:00,
2013-07-25 19:17:00,71.1,61.6,30.06,SE,127,9.0,10.0,72,0.00,,BKN095,0.00,VWS V13.01,2013-07-25 23:17:00,
2013-07-25 19:22:00,71.0,61.9,30.05,SE,128,5.0,10.0,73,0.00,,BKN095,0.00,VWS V13.01,2013-07-25 23:22:00,
2013-07-25 19:27:00,70.8,62.1,30.05,ESE,117,9.0,10.0,74,0.00,,BKN095,0.00,VWS V13.01,2013-07-25 23:27:00,
2013-07-25 19:32:00,70.8,62.1,30.06,SE,131,8.0,11.0,74,0.00,,BKN095,0.00,VWS V13.01,2013-07-25 23:32:00,
2013-07-25 19:37:00,70.6,61.9,30.06,SE,131,9.0,10.0,74,0.00,,BKN095,0.00,VWS V13.01,2013-07-25 23:37:00,
2013-07-25 19:42:00,70.5,61.8,30.06,SE,134,9.0,10.0,74,0.00,,BKN095,0.00,VWS V13.01,2013-07-25 23:42:00,
2013-07-25 19:47:00,70.4,61.3,30.06,SE,135,10.0,11.0,73,0.00,,BKN095,0.00,VWS V13.01,2013-07-25 23:47:00,
2013-07-25 19:52:00,70.4,61.7,30.06,SE,136,11.0,12.0,74,0.00,,BKN095,0.00,VWS V13.01,2013-07-25 23:52:00,
2013-07-25 19:57:00,70.3,61.6,30.06,SE,134,11.0,12.0,74,0.00,,BKN095,0.00,VWS V13.01,2013-07-25 23:57:00,
2013-07-25 20:03:00,70.3,61.6,30.06,SE,128,9.0,13.0,74,0.00,,CLR,0.00,VWS V13.01,2013-07-26 00:03:00,
2013-07-25 20:08:00,70.3,61.6,30.05,SE,131,10.0,12.0,74,0.00,,CLR,0.00,VWS V13.01,2013-07-26 00:08:00,
2013-07-25 20:13:00,70.3,62.8,30.05,SE,135,11.0,11.0,77,0.00,,CLR,0.00,VWS V13.01,2013-07-26 00:13:00,
2013-07-25 20:18:00,70.3,62.4,30.05,SE,128,10.0,11.0,76,0.00,,CLR,0.00,VWS V13.01,2013-07-26 00:18:00,
2013-07-25 20:23:00,70.2,61.9,30.05,SE,128,9.0,12.0,75,0.00,,CLR,0.00,VWS V13.01,2013-07-26 00:23:00,
2013-07-25 20:28:00,70.2,61.5,30.05,ESE,121,11.0,12.0,74,0.00,,CLR,0.00,VWS V13.01,2013-07-26 00:28:00,
2013-07-25 20:33:00,70.2,61.9,30.05,SE,126,11.0,12.0,75,0.00,,CLR,0.00,VWS V13.01,2013-07-26 00:33:00,
2013-07-25 20:38:00,70.1,61.8,30.05,SE,126,9.0,12.0,75,0.00,,CLR,0.00,VWS V13.01,2013-07-26 00:38:00,
2013-07-25 20:43:00,70.1,62.6,30.05,ESE,123,11.0,13.0,77,0.00,,CLR,0.00,VWS V13.01,2013-07-26 00:43:00,
2013-07-25 20:48:00,70.0,61.7,30.05,SE,131,9.0,13.0,75,0.00,,CLR,0.00,VWS V13.01,2013-07-26 00:48:00,
2013-07-25 20:53:00,70.0,62.8,30.04,SE,131,9.0,13.0,78,0.00,,CLR,0.00,VWS V13.01,2013-07-26 00:53:00,
2013-07-25 20:58:00,69.9,62.0,30.04,SE,126,8.0,13.0,76,0.00,,CLR,0.00,VWS V13.01,2013-07-26 00:58:00,
2013-07-25 21:03:00,70.0,62.1,30.04,SE,130,10.0,11.0,76,0.00,,CLR,0.00,VWS V13.01,2013-07-26 01:03:00,
2013-07-25 21:08:00,70.0,62.1,30.04,SE,132,8.0,11.0,76,0.00,,CLR,0.00,VWS V13.01,2013-07-26 01:08:00,
2013-07-25 21:13:00,70.0,61.7,30.04,SE,129,9.0,11.0,75,0.00,,CLR,0.00,VWS V13.01,2013-07-26 01:13:00,
2013-07-25 21:18:00,70.0,61.7,30.05,SE,131,10.0,11.0,75,0.00,,CLR,0.00,VWS V13.01,2013-07-26 01:18:00,
2013-07-25 21:23:00,70.0,62.1,30.05,SE,131,7.0,11.0,76,0.00,,CLR,0.00,VWS V13.01,2013-07-26 01:23:00,
2013-07-25 21:28:00,70.0,62.5,30.05,SE,136,11.0,11.0,77,0.00,,CLR,0.00,VWS V13.01,2013-07-26 01:28:00,
2013-07-25 21:33:00,70.0,62.5,30.06,SE,140,9.0,11.0,77,0.00,,CLR,0.00,VWS V13.01,2013-07-26 01:33:00,
2013-07-25 21:38:00,70.0,63.2,30.05,SE,131,10.0,11.0,79,0.00,,CLR,0.00,VWS V13.01,2013-07-26 01:38:00,
2013-07-25 21:43:00,70.1,63.7,30.05,ESE,123,14.0,14.0,80,0.00,,CLR,0.00,VWS V13.01,2013-07-26 01:43:00,
2013-07-25 21:48:00,69.9,63.1,30.05,SE,137,14.0,15.0,79,0.00,,CLR,0.00,VWS V13.01,2013-07-26 01:48:00,
2013-07-25 21:53:00,69.7,62.9,30.05,ESE,121,12.0,16.0,79,0.00,,CLR,0.00,VWS V13.01,2013-07-26 01:53:00,
2013-07-25 21:58:00,69.6,63.2,30.05,SE,128,11.0,15.0,80,0.00,,CLR,0.00,VWS V13.01,2013-07-26 01:58:00,
2013-07-25 22:03:00,69.5,63.1,30.06,SE,138,14.0,17.0,80,0.00,,CLR,0.00,VWS V13.01,2013-07-26 02:03:00,
2013-07-25 22:08:00,69.4,62.2,30.06,SE,133,14.0,17.0,78,0.00,,CLR,0.00,VWS V13.01,2013-07-26 02:08:00,
2013-07-25 22:13:00,69.3,62.2,30.06,SE,130,16.0,18.0,78,0.00,,CLR,0.00,VWS V13.01,2013-07-26 02:13:00,
2013-07-25 22:18:00,69.3,61.8,30.06,ESE,121,15.0,18.0,77,0.00,,CLR,0.00,VWS V13.01,2013-07-26 02:18:00,
2013-07-25 22:23:00,69.2,62.1,30.06,SE,136,13.0,18.0,78,0.00,,CLR,0.00,VWS V13.01,2013-07-26 02:23:00,
2013-07-25 22:28:00,69.1,62.3,30.06,SE,142,12.0,17.0,79,0.00,,CLR,0.00,VWS V13.01,2013-07-26 02:28:00,
2013-07-25 22:33:00,69.1,62.7,30.06,SE,126,14.0,17.0,80,0.00,,CLR,0.00,VWS V13.01,2013-07-26 02:33:00,
2013-07-25 22:38:00,69.0,61.5,30.06,SE,140,13.0,17.0,77,0.00,,CLR,0.00,VWS V13.01,2013-07-26 02:38:00,
2013-07-25 22:43:00,69.0,62.6,30.06,SE,126,12.0,16.0,80,0.00,,CLR,0.00,VWS V13.01,2013-07-26 02:43:00,
2013-07-25 22:48:00,68.9,62.5,30.06,SE,132,14.0,17.0,80,0.00,,CLR,0.00,VWS V13.01,2013-07-26 02:48:00,
2013-07-25 22:53:00,68.8,62.0,30.06,SE,132,15.0,17.0,79,0.00,,CLR,0.00,VWS V13.01,2013-07-26 02:53:00,
2013-07-25 22:58:00,68.7,61.9,30.06,SE,133,12.0,17.0,79,0.00,,CLR,0.00,VWS V13.01,2013-07-26 02:58:00,
2013-07-25 23:03:00,68.8,62.0,30.06,SE,128,12.0,16.0,79,0.00,,CLR,0.00,VWS V13.01,2013-07-26 03:03:00,
2013-07-25 23:08:00,68.7,61.6,30.06,SE,129,15.0,17.0,78,0.00,,CLR,0.00,VWS V13.01,2013-07-26 03:08:00,
2013-07-25 23:13:00,68.6,61.8,30.06,SE,138,14.0,17.0,79,0.00,,CLR,0.00,VWS V13.01,2013-07-26 03:13:00,
2013-07-25 23:18:00,68.6,61.5,30.05,SE,133,15.0,18.0,78,0.00,,CLR,0.00,VWS V13.01,2013-07-26 03:18:00,
2013-07-25 23:23:00,68.6,61.8,30.05,SE,132,12.0,17.0,79,0.00,,CLR,0.00,VWS V13.01,2013-07-26 03:23:00,
2013-07-25 23:28:00,68.6,61.8,30.05,SE,138,15.0,16.0,79,0.00,,CLR,0.00,VWS V13.01,2013-07-26 03:28:00,
2013-07-25 23:33:00,68.6,62.2,30.06,SE,138,11.0,17.0,80,0.00,,CLR,0.00,VWS V13.01,2013-07-26 03:33:00,
2013-07-25 23:38:00,68.5,61.7,30.06,SE,130,14.0,17.0,79,0.00,,CLR,0.00,VWS V13.01,2013-07-26 03:38:00,
2013-07-25 23:43:00,68.4,61.6,30.06,SE,135,14.0,17.0,79,0.00,,CLR,0.00,VWS V13.01,2013-07-26 03:43:00,
2013-07-25 23:48:00,68.3,61.9,30.06,SE,142,14.0,17.0,80,0.00,,CLR,0.00,VWS V13.01,2013-07-26 03:48:00,
2013-07-25 23:53:00,68.2,61.5,30.06,SE,131,15.0,17.0,79,0.00,,CLR,0.00,VWS V13.01,2013-07-26 03:53:00,
2013-07-25 23:59:00,68.1,62.1,30.06,SSE,147,12.0,17.0,81,0.00,,CLR,0.00,VWS V13.01,2013-07-26 03:59:00,